Weather History for Willimantic, CT

Change the Weather History Date:

Wednesday, March 13, 2013

  Actual Average Record
Temperature  
Mean Temperature 40 °F -  
Max Temperature 50 °F 43 °F 69 °F (2012)
Min Temperature 30 °F 25 °F 8 °F (1984)
Degree Days  
Heating Degree Days 25    
Moisture  
Dew Point 25 °F    
Average Humidity 55    
Maximum Humidity 79    
Minimum Humidity 32    
Precipitation  
Precipitation 0.00 in - - ()
Sea Level Pressure  
Sea Level Pressure 29.80 in    
Wind  
Wind Speed 7 mph (NW)    
Max Wind Speed 17 mph    
Max Gust Speed 25 mph    
Visibility 10 miles    
Events      
Averages and records for this station are not official NWS values.
T = Trace of Precipitation, MM = Missing Value Source: NWS Daily Summary

Daily Weather History Graph

Daily Weather History Graph

Search for Another Location

Airport:

Trip Planner

Search our weather history database for the weather conditions in past years. The results will help you decide how hot, cold, wet, or windy it might be!

Date:

Astronomy

Mar. 13, 2013 Rise Set
Actual Time 7:03 AM EDT 6:53 PM EDT
Civil Twilight 6:35 AM EDT 7:21 PM EDT
Nautical Twilight 6:03 AM EDT 7:53 PM EDT
Astronomical Twilight 5:31 AM EDT 8:26 PM EDT
Moon 7:39 AM EDT (3/13) 9:09 PM EDT (3/13)
Length of Visible Light 12h 45m
Length of Day
11h 49m
Waxing Crescent, 4% of the Moon is Illuminated
Mar 13
Waxing Crescent
Mar 19
First Quarter
Mar 27
Full
Apr 3
Last Quarter
Apr 10
New

Hourly Weather History & Observations

Time (EDT) Temp. Windchill Dew Point Humidity Pressure Visibility Wind Dir Wind Speed Gust Speed Precip Events Conditions
12:24 AM 44.6 °F 43.1 °F 35.6 °F 71% 29.80 in 10.0 mi Variable 3.5 mph - N/A   Overcast
12:52 AM 43.0 °F 37.2 °F 34.0 °F 71% 29.80 in 10.0 mi NW 10.4 mph - N/A   Mostly Cloudy
1:52 AM 42.1 °F 40.2 °F 33.1 °F 70% 29.80 in 10.0 mi NW 3.5 mph - N/A   Mostly Cloudy
2:52 AM 41.0 °F 36.4 °F 30.9 °F 67% 29.80 in 10.0 mi NW 6.9 mph - N/A   Clear
4:52 AM 37.9 °F 32.7 °F 27.0 °F 65% 29.82 in 10.0 mi WNW 6.9 mph - N/A   Clear
5:52 AM 37.0 °F - 26.1 °F 65% 29.82 in 10.0 mi Calm Calm - N/A   Clear
6:52 AM 36.0 °F 32.1 °F 25.0 °F 64% 29.82 in 10.0 mi NW 4.6 mph - N/A   Clear
7:52 AM 36.0 °F 29.6 °F 26.1 °F 67% 29.82 in 10.0 mi West 8.1 mph - N/A   Clear
8:52 AM 39.0 °F 34.0 °F 27.0 °F 62% 29.82 in 10.0 mi WNW 6.9 mph - N/A   Clear
9:52 AM 41.0 °F 34.7 °F 27.0 °F 57% 29.83 in 10.0 mi NW 10.4 mph 17.3 mph N/A   Clear
10:52 AM 44.1 °F 40.8 °F 27.0 °F 51% 29.81 in 10.0 mi Variable 5.8 mph 20.7 mph N/A   Clear
11:52 AM 45.0 °F 38.2 °F 24.1 °F 44% 29.81 in 10.0 mi NW 15.0 mph 21.9 mph N/A   Clear
12:52 PM 48.0 °F - 25.0 °F 41% 29.80 in 10.0 mi NW 13.8 mph 20.7 mph N/A   Clear
1:52 PM 46.9 °F - 21.9 °F 37% 29.77 in 10.0 mi WNW 8.1 mph 17.3 mph N/A   Clear
2:52 PM 48.9 °F - 19.9 °F 32% 29.76 in 10.0 mi West 17.3 mph 25.3 mph N/A   Clear
3:52 PM 48.9 °F - 19.9 °F 32% 29.75 in 10.0 mi West 13.8 mph 19.6 mph N/A   Clear
4:52 PM 46.9 °F - 19.0 °F 33% 29.76 in 10.0 mi WNW 6.9 mph 17.3 mph N/A   Scattered Clouds
5:52 PM 46.9 °F - 19.0 °F 33% 29.76 in 10.0 mi NNW 9.2 mph - N/A   Mostly Cloudy
6:52 PM 45.0 °F 41.2 °F 19.0 °F 36% 29.78 in 10.0 mi NNW 6.9 mph - N/A   Mostly Cloudy
7:52 PM 42.1 °F 39.2 °F 21.0 °F 43% 29.79 in 10.0 mi WNW 4.6 mph - N/A   Clear
8:52 PM 37.9 °F - 23.0 °F 55% 29.80 in 10.0 mi Calm Calm - N/A   Clear
9:52 PM 34.0 °F - 24.1 °F 67% 29.81 in 10.0 mi Calm Calm - N/A   Scattered Clouds
10:52 PM 32.0 °F - 25.0 °F 75% 29.82 in 10.0 mi Calm Calm - N/A   Mostly Cloudy
11:52 PM 30.9 °F 27.5 °F 25.0 °F 79% 29.81 in 10.0 mi ENE 3.5 mph - N/A   Overcast